sat.trackr.live / text

‹ back to catalog

TDRS 5

NORAD 21639 · 1991-054B

PAYLOAD ACTIVE UNKNOWN

§ Identity

Operator
Country
US
Launch date
1991-08-02
Launch site
AFETR
Launch vehicle
Mass (kg)
RCS (m²)
20.86

Purposes: comms

External: N2YO · Heavens-Above · Gunter

§ Orbital elements

Epoch: 2026-09-16T09:11:36.306240Z

Period
1,435.96 min
Inclination
14.0607°
Eccentricity
0.0009292
Mean motion
1.00281594 rev/d
Perigee alt
35,744.7 km
Apogee alt
35,823.0 km
Semi-major
42,162.0 km
B*
0.0000e+0
RAAN
353.0930°
Arg perigee
251.3156°
Mean anomaly
81.4722°
Rev number
12,862

§ Raw data

TDRS 51 21639U 91054B   26259.38305910  .00000084  00000+0  00000+0 0  99932 21639  14.0607 353.0930 0009292 251.3156  81.4722  1.00281594128622

JSON: /api/v1/satellites/21639 · /tle

For live sub-satellite position, see the globe view (requires WebGL).

§ Visibility from observer

Set your observer location to see the next 7 days of passes ≥ 10°. The values pass through the URL so the page stays shareable.

No JS? Fill the form by hand. The geolocation button needs JavaScript.